Find PARUS-T1

NORAD ID: 62656 Int'l Des: NNA 2025-009 Owner: TASA/PYRAS Country: J operational
又名: OBJECT AZ spacetrack TRANSPORTER-12 OBJECT AZ celestrak
LEOCIRCULARRETROGRADESSO

当前视图

正在加载3D地球...

About PARUS-T1

PARUS-T1 (NORAD 62656) is a satellite launched Jan 14, 2025 by TASA/PYRAS of J. It operates in LEO, CIRCULAR, RETROGRADE, SSO orbit with a mass of 4.00 kg.

即将过境

Passes for default location (London). Set your location on the main map for personalized predictions.

高度历史

Loading altitude history...

两行轨道根数

1 62656U 25009AZ 26263.17603532 .00009662 00000-0 28590-3 0 9997
2 62656 97.3887 346.3686 0001550 44.3037 315.8330 15.35107182 93588
Epoch: Sep 20, 2026 • Age: 38 hours

当前状态

高度 472.7 km
远地点 / 近地点 N/A
速度 7.63 km/s
星下点 -29.54°S, 117.08°W
发射日期 Jan 14, 2025
运行时间 1.6 years
类型 other

技术详情

分类 Payload
质量 4.00 kg
干质量 4.00 kg
总质量 4.00 kg
长度 0.30 m
直径 0.10 m
跨度 0.30 m
形状 Box
制造商 PYRAS
平台类型 Cubesat 3U
阶段状态 In Orbit
所有者/国家 TASA/PYRAS/J

Most Searched